| time (UTC) | temp F | wind direction | speed knots | gust knots | rain 1hr in | rain 24hr in | rain mn in | humidity % | barometer mb |
| 20260506115352 | 69 | 277 | 6.1 | 10.4 | 0.00 | 0.00 | 0.00 | 38 | 1012.6 |
| 20260506114354 | 68 | 263 | 0.9 | 7.8 | 0.00 | 0.00 | 0.00 | 39 | 1012.6 |
| 20260506113339 | 68 | 161 | 0.9 | 6.1 | 0.00 | 0.00 | 0.00 | 39 | 1012.6 |
| 20260506112337 | 68 | 262 | 6.1 | 9.6 | 0.00 | 0.00 | 0.00 | 41 | 1012.5 |
| 20260506111338 | 68 | 255 | 3.5 | 9.6 | 0.00 | 0.00 | 0.00 | 40 | 1012.7 |
| 20260506110340 | 68 | 328 | 2.6 | 4.3 | 0.00 | 0.00 | 0.00 | 41 | 1012.9 |
| 20260506105359 | 66 | 82 | 0.9 | 7.0 | 0.00 | 0.00 | 0.00 | 42 | 1012.8 |
| 20260506104356 | 66 | 14 | 2.6 | 7.8 | 0.00 | 0.00 | 0.00 | 42 | 1013.1 |
| 20260506103343 | 66 | 53 | 0.9 | 5.2 | 0.00 | 0.00 | 0.00 | 43 | 1013.1 |
| 20260506102337 | 66 | 271 | 1.7 | 4.3 | 0.00 | 0.00 | 0.00 | 45 | 1013.2 |
| 20260506101339 | 65 | 261 | 3.5 | 7.8 | 0.00 | 0.00 | 0.00 | 45 | 1013.2 |
| 20260506100347 | 65 | 227 | 0.9 | 7.0 | 0.00 | 0.00 | 0.00 | 46 | 1013.3 |
| 20260506095345 | 65 | 266 | 2.6 | 5.2 | 0.00 | 0.00 | 0.00 | 46 | 1013.4 |
| 20260506094353 | 65 | 302 | 1.7 | 11.3 | 0.00 | 0.00 | 0.00 | 45 | 1013.6 |
| 20260506093344 | 65 | 99 | 0.0 | 4.3 | 0.00 | 0.00 | 0.00 | 45 | 1013.5 |
| 20260506092339 | 64 | 59 | 0.9 | 3.5 | 0.00 | 0.00 | 0.00 | 47 | 1013.5 |
| 20260506091336 | 64 | 325 | 0.0 | 3.5 | 0.00 | 0.00 | 0.00 | 50 | 1013.5 |
| 20260506090343 | 63 | 76 | 0.0 | 3.5 | 0.00 | 0.00 | 0.00 | 52 | 1013.5 |
| 20260506085344 | 62 | 330 | 3.5 | 4.3 | 0.00 | 0.00 | 0.00 | 54 | 1013.5 |
| 20260506084351 | 61 | 255 | 0.9 | 5.2 | 0.00 | 0.00 | 0.00 | 56 | 1013.4 |
| 20260506083355 | 61 | 270 | 2.6 | 4.3 | 0.00 | 0.00 | 0.00 | 57 | 1013.4 |
| 20260506082337 | 60 | 269 | 2.6 | 4.3 | 0.00 | 0.00 | 0.00 | 59 | 1013.3 |
| 20260506081359 | 60 | 323 | 2.6 | 4.3 | 0.00 | 0.00 | 0.00 | 59 | 1013.4 |
| 20260506080336 | 60 | 295 | 1.7 | 4.3 | 0.00 | 0.00 | 0.00 | 60 | 1013.4 |
| 20260506073339 | 58 | 348 | 0.9 | 3.5 | 0.00 | 0.00 | 0.00 | 66 | 1013.3 |
| 20260506072338 | 58 | 0 | 2.6 | 4.3 | 0.00 | 0.00 | 0.00 | 68 | 1013.2 |
| 20260506071342 | 58 | 50 | 0.9 | 2.6 | 0.00 | 0.00 | 0.00 | 71 | 1013.1 |
| 20260506070347 | 57 | 53 | 0.0 | 2.6 | 0.00 | 0.00 | 0.00 | 74 | 1013.1 |
| 20260506062344 | 53 | 217 | 0.0 | 2.6 | 0.00 | 0.00 | 0.00 | 82 | 1013.0 |
| 20260506061348 | 53 | 206 | 0.0 | 1.7 | 0.00 | 0.00 | 0.00 | 83 | 1013.0 |
| 20260506060353 | 53 | 193 | 0.0 | 0.9 | 0.00 | 0.00 | 0.00 | 83 | 1013.0 |
| 20260506051346 | 51 | 193 | 0.0 | 0.9 | 0.00 | 0.00 | 0.00 | 84 | 1012.7 |
| 20260506050351 | 51 | 194 | 0.0 | 0.9 | 0.00 | 0.00 | 0.00 | 84 | 1012.7 |
| 20260506044335 | 52 | 191 | 0.0 | 0.0 | 0.00 | 0.00 | 0.00 | 84 | 1012.5 |
| 20260506043337 | 52 | 191 | 0.0 | 0.0 | 0.00 | 0.00 | 0.00 | 84 | 1012.4 |
| 20260506042356 | 52 | 191 | 0.0 | 0.0 | 0.00 | 0.00 | 0.00 | 84 | 1012.4 |
| 20260506041356 | 52 | 192 | 0.0 | 0.0 | 0.00 | 0.00 | 0.00 | 83 | 1012.3 |
| 20260506040343 | 52 | 192 | 0.0 | 0.0 | 0.00 | 0.00 | 0.00 | 83 | 1012.3 |
| 20260506035340 | 52 | 192 | 0.0 | 0.0 | 0.00 | 0.00 | 0.00 | 83 | 1012.2 |
| 20260506034340 | 52 | 192 | 0.0 | 0.9 | 0.00 | 0.00 | 0.00 | 83 | 1012.2 |
| 20260506033347 | 52 | 192 | 0.0 | 0.0 | 0.00 | 0.00 | 0.00 | 83 | 1012.1 |
| 20260506032341 | 52 | 192 | 0.0 | 0.9 | 0.00 | 0.00 | 0.00 | 82 | 1012.1 |
| 20260506031348 | 52 | 192 | 0.0 | 0.0 | 0.00 | 0.00 | 0.00 | 82 | 1012.1 |
| 20260506030354 | 52 | 192 | 0.0 | 2.6 | 0.00 | 0.00 | 0.00 | 82 | 1012.1 |
| 20260506025355 | 52 | 262 | 0.0 | 1.7 | 0.00 | 0.00 | 0.00 | 81 | 1012.1 |
| 20260506024340 | 52 | 265 | 0.0 | 0.9 | 0.00 | 0.00 | 0.00 | 81 | 1012.1 |
| 20260506023349 | 53 | 265 | 0.0 | 0.9 | 0.00 | 0.00 | 0.00 | 81 | 1012.1 |
| 20260506022351 | 53 | 264 | 0.0 | 3.5 | 0.00 | 0.00 | 0.00 | 80 | 1012.1 |
| 20260506021355 | 53 | 48 | 0.0 | 1.7 | 0.00 | 0.00 | 0.00 | 80 | 1011.9 |
| 20260506020355 | 54 | 48 | 1.7 | 2.6 | 0.00 | 0.00 | 0.00 | 80 | 1011.8 |
| 20260506015353 | 54 | 48 | 0.0 | 2.6 | 0.00 | 0.00 | 0.00 | 80 | 1011.8 |
| 20260506014338 | 53 | 48 | 0.0 | 0.0 | 0.00 | 0.00 | 0.00 | 79 | 1011.9 |
| 20260506013358 | 53 | 49 | 0.0 | 2.6 | 0.00 | 0.00 | 0.00 | 79 | 1011.8 |
| 20260506012356 | 54 | 49 | 1.7 | 2.6 | 0.00 | 0.00 | 0.00 | 79 | 1011.9 |
| 20260506011358 | 55 | 42 | 0.0 | 2.6 | 0.00 | 0.00 | 0.00 | 78 | 1011.9 |
| 20260506010335 | 55 | 39 | 0.0 | 1.7 | 0.00 | 0.00 | 0.00 | 78 | 1011.8 |
| 20260506005356 | 55 | 39 | 0.0 | 1.7 | 0.00 | 0.00 | 0.00 | 77 | 1011.9 |
| 20260506004358 | 55 | 39 | 0.0 | 1.7 | 0.00 | 0.01 | 0.00 | 77 | 1012.0 |
| 20260506003339 | 55 | 40 | 0.9 | 3.5 | 0.00 | 0.01 | 0.00 | 77 | 1012.0 |
| 20260506002339 | 56 | 21 | 0.0 | 0.0 | 0.00 | 0.01 | 0.00 | 77 | 1012.0 |
| 20260506001344 | 56 | 20 | 0.0 | 2.6 | 0.00 | 0.01 | 0.00 | 76 | 1012.0 |
| 20260506000344 | 56 | 20 | 1.7 | 3.5 | 0.00 | 0.01 | 0.00 | 76 | 1012.0 |
| 20260505235353 | 56 | 14 | 0.9 | 2.6 | 0.00 | 0.01 | 0.00 | 75 | 1012.1 |
| 20260505234351 | 56 | 14 | 1.7 | 3.5 | 0.00 | 0.01 | 0.00 | 75 | 1012.2 |
| 20260505233338 | 57 | 18 | 0.0 | 3.5 | 0.00 | 0.01 | 0.00 | 74 | 1012.2 |
| 20260505232355 | 57 | 17 | 1.7 | 5.2 | 0.00 | 0.01 | 0.00 | 74 | 1012.1 |
| 20260505231357 | 57 | 56 | 2.6 | 5.2 | 0.00 | 0.01 | 0.00 | 74 | 1011.8 |
| 20260505230338 | 57 | 20 | 2.6 | 5.2 | 0.00 | 0.01 | 0.00 | 74 | 1012.0 |
| 20260505225337 | 57 | 5 | 2.6 | 3.5 | 0.00 | 0.01 | 0.00 | 75 | 1012.1 |
| 20260505224357 | 57 | 54 | 0.0 | 3.5 | 0.00 | 0.01 | 0.00 | 75 | 1012.2 |
| 20260505223356 | 57 | 56 | 0.9 | 2.6 | 0.00 | 0.01 | 0.00 | 75 | 1012.1 |
| 20260505222357 | 57 | 58 | 0.0 | 1.7 | 0.00 | 0.01 | 0.00 | 75 | 1012.4 |
| 20260505221338 | 58 | 59 | 0.0 | 3.5 | 0.00 | 0.01 | 0.00 | 75 | 1012.5 |
| 20260505220343 | 58 | 79 | 2.6 | 4.3 | 0.00 | 0.01 | 0.00 | 76 | 1012.6 |
| 20260505215343 | 58 | 329 | 1.7 | 3.5 | 0.00 | 0.01 | 0.00 | 75 | 1012.8 |
| 20260505214348 | 58 | 319 | 1.7 | 3.5 | 0.00 | 0.01 | 0.00 | 74 | 1012.8 |
| 20260505212357 | 58 | 294 | 0.9 | 3.5 | 0.00 | 0.01 | 0.00 | 74 | 1012.8 |
| 20260505211338 | 58 | 199 | 0.0 | 0.0 | 0.00 | 0.01 | 0.00 | 74 | 1012.5 |
| 20260505210341 | 58 | 199 | 0.0 | 0.0 | 0.00 | 0.01 | 0.00 | 74 | 1012.3 |
| 20260505205357 | 58 | 199 | 0.9 | 2.6 | 0.00 | 0.01 | 0.00 | 75 | 1012.3 |
| 20260505204336 | 58 | 262 | 0.0 | 0.9 | 0.00 | 0.04 | 0.00 | 75 | 1012.1 |
| 20260505203343 | 58 | 262 | 0.0 | 3.5 | 0.00 | 0.04 | 0.00 | 75 | 1012.1 |
| 20260505202340 | 58 | 264 | 3.5 | 4.3 | 0.00 | 0.04 | 0.00 | 74 | 1012.1 |
| 20260505201346 | 58 | 254 | 3.5 | 4.3 | 0.00 | 0.04 | 0.00 | 73 | 1012.0 |
| 20260505200340 | 58 | 78 | 0.0 | 0.0 | 0.00 | 0.04 | 0.00 | 73 | 1011.5 |
| 20260505195342 | 58 | 78 | 0.0 | 0.0 | 0.00 | 0.04 | 0.00 | 74 | 1011.4 |
| 20260505194348 | 58 | 78 | 0.0 | 3.5 | 0.00 | 0.04 | 0.00 | 75 | 1011.4 |
| 20260505193337 | 58 | 73 | 0.0 | 4.3 | 0.00 | 0.04 | 0.00 | 76 | 1011.4 |
| 20260505192356 | 58 | 34 | 0.0 | 3.5 | 0.00 | 0.04 | 0.00 | 76 | 1011.3 |
| 20260505191358 | 58 | 66 | 0.9 | 5.2 | 0.00 | 0.04 | 0.00 | 75 | 1011.4 |
| 20260505190342 | 59 | 15 | 3.5 | 7.0 | 0.00 | 0.04 | 0.00 | 74 | 1011.4 |
| 20260505185344 | 59 | 344 | 3.5 | 6.1 | 0.00 | 0.04 | 0.00 | 72 | 1011.3 |
| 20260505184350 | 59 | 12 | 4.3 | 6.1 | 0.00 | 0.04 | 0.00 | 70 | 1011.2 |
| 20260505183336 | 59 | 356 | 3.5 | 7.0 | 0.00 | 0.04 | 0.00 | 70 | 1010.9 |
| 20260505182357 | 59 | 353 | 4.3 | 7.8 | 0.00 | 0.04 | 0.00 | 67 | 1011.1 |
| 20260505181338 | 60 | 336 | 4.3 | 5.2 | 0.00 | 0.04 | 0.00 | 61 | 1011.3 |
| 20260505180344 | 60 | 74 | 2.6 | 6.1 | 0.00 | 0.04 | 0.00 | 63 | 1011.0 |
| 20260505175357 | 60 | 59 | 4.3 | 7.8 | 0.00 | 0.04 | 0.00 | 61 | 1011.2 |
| 20260505174337 | 60 | 355 | 2.6 | 4.3 | 0.00 | 0.04 | 0.00 | 59 | 1011.4 |
| 20260505173342 | 60 | 342 | 0.9 | 3.5 | 0.00 | 0.04 | 0.00 | 58 | 1011.3 |
| 20260505172340 | 60 | 341 | 3.5 | 5.2 | 0.00 | 0.04 | 0.00 | 58 | 1011.6 |
| 20260505171346 | 61 | 339 | 2.6 | 9.6 | 0.00 | 0.04 | 0.00 | 56 | 1011.7 |
| 20260505170336 | 62 | 303 | 3.5 | 5.2 | 0.00 | 0.04 | 0.00 | 53 | 1011.8 |
| 20260505165357 | 62 | 10 | 3.5 | 5.2 | 0.00 | 0.04 | 0.00 | 54 | 1011.7 |
| 20260505164357 | 62 | 0 | 2.6 | 6.1 | 0.00 | 0.04 | 0.00 | 54 | 1011.5 |
| 20260505163336 | 62 | 348 | 3.5 | 14.8 | 0.00 | 0.04 | 0.00 | 54 | 1011.6 |
| 20260505162335 | 65 | 319 | 7.0 | 11.3 | 0.00 | 0.04 | 0.00 | 62 | 1011.7 |
| 20260505161337 | 65 | 219 | 0.9 | 7.0 | 0.00 | 0.04 | 0.00 | 63 | 1011.4 |
| 20260505160340 | 65 | 262 | 3.5 | 10.4 | 0.00 | 0.04 | 0.00 | 62 | 1011.0 |
| 20260505153338 | 65 | 136 | 4.3 | 13.0 | 0.00 | 0.05 | 0.00 | 57 | 1010.7 |
| 20260505152338 | 65 | 114 | 7.0 | 13.0 | 0.00 | 0.05 | 0.00 | 56 | 1010.8 |
| 20260505151343 | 66 | 127 | 7.0 | 13.0 | 0.00 | 0.05 | 0.00 | 54 | 1010.7 |
| 20260505150349 | 66 | 143 | 6.1 | 14.8 | 0.00 | 0.05 | 0.00 | 53 | 1010.5 |
| 20260505140356 | 65 | 121 | 4.3 | 13.0 | 0.00 | 0.05 | 0.00 | 63 | 1011.0 |
| 20260505124355 | 69 | 193 | 2.6 | 12.2 | 0.00 | 0.05 | 0.00 | 51 | 1011.4 |
| 20260505123341 | 68 | 113 | 2.6 | 10.4 | 0.00 | 0.05 | 0.00 | 50 | 1011.4 |
| 20260505122356 | 69 | 156 | 5.2 | 11.3 | 0.00 | 0.05 | 0.00 | 49 | 1011.7 |
| 20260505121343 | 69 | 54 | 0.0 | 3.5 | 0.00 | 0.05 | 0.00 | 54 | 1011.7 |
| 20260505120341 | 69 | 60 | 0.9 | 3.5 | 0.00 | 0.05 | 0.00 | 55 | 1011.9 |